sat.trackr.live / text

‹ back to catalog

GONETS-M 7

NORAD 39251 · 2013-048C

PAYLOAD ACTIVE UNKNOWN

§ Identity

Operator
Country
CIS
Launch date
2013-09-11
Launch site
PLMSC
Launch vehicle
Mass (kg)
RCS (m²)
1.65

External: N2YO · Heavens-Above · Gunter

§ Orbital elements

Epoch: 2026-09-20T03:25:30.728064Z

Period
115.86 min
Inclination
82.4855°
Eccentricity
0.0017506
Mean motion
12.42917184 rev/d
Perigee alt
1,480.5 km
Apogee alt
1,508.0 km
Semi-major
7,872.4 km
B*
-2.9126e-4
RAAN
287.1610°
Arg perigee
11.6503°
Mean anomaly
348.4979°
Rev number
59,063

§ Raw data

GONETS-M 71 39251U 13048C   26263.14271676 -.00000030  00000+0 -29126-3 0  99962 39251  82.4855 287.1610 0017506  11.6503 348.4979 12.42917184590630

JSON: /api/v1/satellites/39251 · /tle

For live sub-satellite position, see the globe view (requires WebGL).

§ Visibility from observer

Set your observer location to see the next 7 days of passes ≥ 10°. The values pass through the URL so the page stays shareable.

No JS? Fill the form by hand. The geolocation button needs JavaScript.

§ Radio — SatNOGS DB

ModeDescriptionDownlinkUplink
FM UHF Unknown 387.450 MHz
FM UHF Unknown 388.675 MHz
FM UHF Unknown 388.775 MHz

3 transmitters · refreshed weekly from db.satnogs.org